国际通讯卫星 701星 (INTELSAT 701 (IS-701))

导读

INTELSAT 701(国际通信卫星701)由国际通信卫星组织(ITSO)委托美国劳拉空间系统公司建造,于1993年10月22日在法属圭亚那,由阿丽亚娜4运载火箭发射升空。卫星设计寿命15年,发射质量约3695千克,运行在地球静止轨道,属于国际通信卫星7系列的首颗卫星,主要承担跨洋通信传输服务,为全球商用通信网络提供支持,该卫星现已超出设计服役年限。

基本信息
目录编号:
22871
目录名称:
INTELSAT 701
国际标识:
1993-066A
轨道中心:
EARTH
卫星名称:
国际通讯卫星 701星
卫星全名:
国际通讯卫星 701星 (INTELSAT 701 (IS-701))
卫星状态:
在轨 (已飞行11966 天)
发射日期:
1993-10-22 UTC
国别 :
(ITSO)
星等 :
--
轨道信息
数据来源 国际轨道数据 AOE轨道数据
星历时间 2026-07-27T03:39:15+0800
1天前
查看轨道信息
2026-07-26T04:00:00+0800
2天前
查看轨道信息
半长轴 42432.656km 42432.656km
偏心率 0.0003234 0.0003153
轨道倾角 10.908° 10.906°
近地点辐角 83.295° 80.224°
升交点赤经 45.865° 45.875°
平近点角 104.316° 114.962°
近地点 36040.796km 36041.139km
远地点 36068.242km 36067.899km
周期 1449.806分钟 1449.806分钟
每日圈数 0.993236 0.993236
详细信息
卫星平台:
SSL-1300
平衡模式:
三轴稳定
覆盖范围:
全球
运营商:
国际卫星通信公司
运营商所在国:
美国
制造商(研发单位):
劳拉空间系统公司
制造商所在国:
美国
使用方式:
暂无
卫星简介
从1965年4月至1984年3月,国际通信卫星组织发射了5代、6种不同性能的卫星共计35颗,除6颗卫星因运载火箭和远地点发动机故障而发射失败外,其余29颗卫星均被送到了预定的静止轨道位置。1984年8月前后,国际通信卫星组织利用部署在大西洋、太平洋、印度洋上空的15颗国际通信卫星,为遍布世界各地170多个国家或地区提供电话、电传、电报、电视和数据传输等电信业务;该卫星已退役。
2D轨道图
3D轨道图
轨道高度分析图
轨道倾角分析图
轨道综合分析图
查看轨道综合分析图